<?xml version="1.0" encoding="UTF-8" standalone="no" ?>
<gpx xmlns="http://www.topografix.com/GPX/1/1" xmlns:xsi="http://www.w3.org/2001/XMLSchema-instance" xsi:schemaLocation="http://www.topografix.com/GPX/1/1 http://www.topografix.com/GPX/1/1/gpx.xsd" version="1.1" creator="VisuGPX - https://www.visugpx.com">
  <metadata>
    <name>Tour Meygal</name>
    <desc><![CDATA[grp_trc:Mézenc]]></desc>
  </metadata>
  <trk>
    <name><![CDATA[Retour les Estables par Le Mézenc 13 kms]]></name>
    <cmt><![CDATA[16:29:37]]></cmt>
    <desc><![CDATA[<html dir="ltr"><head></head><body contenteditable="true">comment ...</body></html>]]></desc>
    <trkseg>
      <trkpt lat="44.85885" lon="4.17159">
        <ele>1533</ele>
        <time>2022-05-08T14:29:37Z</time>
      </trkpt>
      <trkpt lat="44.85885" lon="4.17159">
        <ele>1533</ele>
        <time>2022-05-08T14:29:37Z</time>
      </trkpt>
      <trkpt lat="44.859" lon="4.17163">
        <ele>1533</ele>
        <time>2022-05-08T14:29:37Z</time>
      </trkpt>
      <trkpt lat="44.85947" lon="4.17202">
        <ele>1531</ele>
        <time>2022-05-08T14:29:37Z</time>
      </trkpt>
      <trkpt lat="44.85896" lon="4.17252">
        <ele>1529</ele>
        <time>2022-05-08T14:29:37Z</time>
      </trkpt>
      <trkpt lat="44.85888" lon="4.17264">
        <ele>1527</ele>
        <time>2022-05-08T14:29:37Z</time>
      </trkpt>
      <trkpt lat="44.85879" lon="4.17294">
        <ele>1525</ele>
        <time>2022-05-08T14:29:37Z</time>
      </trkpt>
      <trkpt lat="44.85861" lon="4.17369">
        <ele>1521</ele>
        <time>2022-05-08T14:29:37Z</time>
      </trkpt>
      <trkpt lat="44.85838" lon="4.17441">
        <ele>1517</ele>
        <time>2022-05-08T14:29:37Z</time>
      </trkpt>
      <trkpt lat="44.85832" lon="4.17474">
        <ele>1514</ele>
        <time>2022-05-08T14:29:37Z</time>
      </trkpt>
      <trkpt lat="44.85835" lon="4.17484">
        <ele>1511</ele>
        <time>2022-05-08T14:29:37Z</time>
      </trkpt>
      <trkpt lat="44.85976" lon="4.17579">
        <ele>1501</ele>
        <time>2022-05-08T14:29:37Z</time>
      </trkpt>
      <trkpt lat="44.85976" lon="4.17579">
        <ele>1479</ele>
        <time>2022-05-08T14:29:37Z</time>
      </trkpt>
      <trkpt lat="44.86066" lon="4.17657">
        <ele>1475</ele>
      </trkpt>
      <trkpt lat="44.86156" lon="4.17736">
        <ele>1466</ele>
        <time>2022-05-08T14:29:37Z</time>
      </trkpt>
      <trkpt lat="44.86186" lon="4.17803">
        <ele>1461</ele>
        <time>2022-05-08T14:29:37Z</time>
      </trkpt>
      <trkpt lat="44.86186" lon="4.17817">
        <ele>1458</ele>
        <time>2022-05-08T14:29:37Z</time>
      </trkpt>
      <trkpt lat="44.86199" lon="4.17824">
        <ele>1456</ele>
        <time>2022-05-08T14:29:37Z</time>
      </trkpt>
      <trkpt lat="44.86293" lon="4.1799">
        <ele>1456</ele>
        <time>2022-05-08T14:29:37Z</time>
      </trkpt>
      <trkpt lat="44.86297" lon="4.17999">
        <ele>1456</ele>
        <time>2022-05-08T14:29:37Z</time>
      </trkpt>
      <trkpt lat="44.86301" lon="4.18021">
        <ele>1455</ele>
        <time>2022-05-08T14:29:37Z</time>
      </trkpt>
      <trkpt lat="44.86363" lon="4.18113">
        <ele>1456</ele>
        <time>2022-05-08T14:29:37Z</time>
      </trkpt>
      <trkpt lat="44.86421" lon="4.18217">
        <ele>1455</ele>
      </trkpt>
      <trkpt lat="44.86478" lon="4.18322">
        <ele>1456</ele>
        <time>2022-05-08T14:29:37Z</time>
      </trkpt>
      <trkpt lat="44.86478" lon="4.18322">
        <ele>1460</ele>
        <time>2022-05-08T14:29:37Z</time>
      </trkpt>
      <trkpt lat="44.86553" lon="4.18458">
        <ele>1463</ele>
        <time>2022-05-08T14:29:37Z</time>
      </trkpt>
      <trkpt lat="44.86565" lon="4.1847">
        <ele>1464</ele>
        <time>2022-05-08T14:29:37Z</time>
      </trkpt>
      <trkpt lat="44.86584" lon="4.18476">
        <ele>1465</ele>
        <time>2022-05-08T14:29:37Z</time>
      </trkpt>
      <trkpt lat="44.86591" lon="4.18476">
        <ele>1465</ele>
        <time>2022-05-08T14:29:37Z</time>
      </trkpt>
      <trkpt lat="44.866" lon="4.18482">
        <ele>1465</ele>
        <time>2022-05-08T14:29:37Z</time>
      </trkpt>
      <trkpt lat="44.86608" lon="4.18508">
        <ele>1465</ele>
        <time>2022-05-08T14:29:37Z</time>
      </trkpt>
      <trkpt lat="44.86613" lon="4.18552">
        <ele>1465</ele>
        <time>2022-05-08T14:29:37Z</time>
      </trkpt>
      <trkpt lat="44.86639" lon="4.1859">
        <ele>1465</ele>
        <time>2022-05-08T14:29:37Z</time>
      </trkpt>
      <trkpt lat="44.86721" lon="4.1863">
        <ele>1462</ele>
      </trkpt>
      <trkpt lat="44.86802" lon="4.18671">
        <ele>1461</ele>
        <time>2022-05-08T14:29:37Z</time>
      </trkpt>
      <trkpt lat="44.86811" lon="4.18673">
        <ele>1460</ele>
        <time>2022-05-08T14:29:37Z</time>
      </trkpt>
      <trkpt lat="44.8682" lon="4.18673">
        <ele>1460</ele>
        <time>2022-05-08T14:29:37Z</time>
      </trkpt>
      <trkpt lat="44.86908" lon="4.18635">
        <ele>1458</ele>
        <time>2022-05-08T14:29:37Z</time>
      </trkpt>
      <trkpt lat="44.86952" lon="4.18638">
        <ele>1458</ele>
        <time>2022-05-08T14:29:37Z</time>
      </trkpt>
      <trkpt lat="44.87005" lon="4.1866">
        <ele>1457</ele>
        <time>2022-05-08T14:29:37Z</time>
      </trkpt>
      <trkpt lat="44.8702" lon="4.18669">
        <ele>1457</ele>
        <time>2022-05-08T14:29:37Z</time>
      </trkpt>
      <trkpt lat="44.8702" lon="4.18669">
        <ele>1455</ele>
        <time>2022-05-08T14:29:37Z</time>
      </trkpt>
      <trkpt lat="44.87146" lon="4.18746">
        <ele>1452</ele>
        <time>2022-05-08T14:29:37Z</time>
      </trkpt>
      <trkpt lat="44.87265" lon="4.18749">
        <ele>1449</ele>
        <time>2022-05-08T14:29:37Z</time>
      </trkpt>
      <trkpt lat="44.8728" lon="4.18744">
        <ele>1448</ele>
        <time>2022-05-08T14:29:37Z</time>
      </trkpt>
      <trkpt lat="44.87288" lon="4.18735">
        <ele>1446</ele>
        <time>2022-05-08T14:29:37Z</time>
      </trkpt>
      <trkpt lat="44.87303" lon="4.187">
        <ele>1445</ele>
        <time>2022-05-08T14:29:37Z</time>
      </trkpt>
      <trkpt lat="44.87309" lon="4.18692">
        <ele>1443</ele>
        <time>2022-05-08T14:29:37Z</time>
      </trkpt>
      <trkpt lat="44.87401" lon="4.18621">
        <ele>1438</ele>
        <time>2022-05-08T14:29:37Z</time>
      </trkpt>
      <trkpt lat="44.87409" lon="4.18618">
        <ele>1435</ele>
        <time>2022-05-08T14:29:37Z</time>
      </trkpt>
      <trkpt lat="44.87447" lon="4.18615">
        <ele>1432</ele>
        <time>2022-05-08T14:29:37Z</time>
      </trkpt>
      <trkpt lat="44.87453" lon="4.18606">
        <ele>1429</ele>
        <time>2022-05-08T14:29:37Z</time>
      </trkpt>
      <trkpt lat="44.87506" lon="4.18598">
        <ele>1425</ele>
        <time>2022-05-08T14:29:37Z</time>
      </trkpt>
      <trkpt lat="44.8752" lon="4.18602">
        <ele>1410</ele>
        <time>2022-05-08T14:29:37Z</time>
      </trkpt>
      <trkpt lat="44.87546" lon="4.18599">
        <ele>1409</ele>
        <time>2022-05-08T14:29:37Z</time>
      </trkpt>
      <trkpt lat="44.8759" lon="4.18568">
        <ele>1408</ele>
        <time>2022-05-08T14:29:37Z</time>
      </trkpt>
      <trkpt lat="44.87762" lon="4.18425">
        <ele>1400</ele>
        <time>2022-05-08T14:29:37Z</time>
      </trkpt>
      <trkpt lat="44.87762" lon="4.18425">
        <ele>1386</ele>
        <time>2022-05-08T14:29:37Z</time>
      </trkpt>
      <trkpt lat="44.87771" lon="4.18416">
        <ele>1386</ele>
        <time>2022-05-08T14:29:37Z</time>
      </trkpt>
      <trkpt lat="44.87791" lon="4.18407">
        <ele>1386</ele>
        <time>2022-05-08T14:29:37Z</time>
      </trkpt>
      <trkpt lat="44.87821" lon="4.1836">
        <ele>1387</ele>
        <time>2022-05-08T14:29:37Z</time>
      </trkpt>
      <trkpt lat="44.87834" lon="4.18295">
        <ele>1388</ele>
        <time>2022-05-08T14:29:37Z</time>
      </trkpt>
      <trkpt lat="44.87842" lon="4.18283">
        <ele>1389</ele>
        <time>2022-05-08T14:29:37Z</time>
      </trkpt>
      <trkpt lat="44.87857" lon="4.18283">
        <ele>1390</ele>
        <time>2022-05-08T14:29:37Z</time>
      </trkpt>
      <trkpt lat="44.87871" lon="4.18293">
        <ele>1391</ele>
        <time>2022-05-08T14:29:37Z</time>
      </trkpt>
      <trkpt lat="44.87879" lon="4.18296">
        <ele>1392</ele>
        <time>2022-05-08T14:29:37Z</time>
      </trkpt>
      <trkpt lat="44.87884" lon="4.18286">
        <ele>1393</ele>
        <time>2022-05-08T14:29:37Z</time>
      </trkpt>
      <trkpt lat="44.87867" lon="4.18231">
        <ele>1395</ele>
        <time>2022-05-08T14:29:37Z</time>
      </trkpt>
      <trkpt lat="44.87874" lon="4.18222">
        <ele>1396</ele>
        <time>2022-05-08T14:29:37Z</time>
      </trkpt>
      <trkpt lat="44.87895" lon="4.18244">
        <ele>1399</ele>
        <time>2022-05-08T14:29:37Z</time>
      </trkpt>
      <trkpt lat="44.87902" lon="4.18254">
        <ele>1400</ele>
        <time>2022-05-08T14:29:37Z</time>
      </trkpt>
      <trkpt lat="44.87923" lon="4.18267">
        <ele>1401</ele>
        <time>2022-05-08T14:29:37Z</time>
      </trkpt>
      <trkpt lat="44.87932" lon="4.18261">
        <ele>1403</ele>
        <time>2022-05-08T14:29:37Z</time>
      </trkpt>
      <trkpt lat="44.87809" lon="4.17955">
        <ele>1414</ele>
        <time>2022-05-08T14:29:37Z</time>
      </trkpt>
      <trkpt lat="44.87809" lon="4.17944">
        <ele>1419</ele>
        <time>2022-05-08T14:29:37Z</time>
      </trkpt>
      <trkpt lat="44.87815" lon="4.17937">
        <ele>1422</ele>
        <time>2022-05-08T14:29:37Z</time>
      </trkpt>
      <trkpt lat="44.87823" lon="4.17938">
        <ele>1425</ele>
        <time>2022-05-08T14:29:37Z</time>
      </trkpt>
      <trkpt lat="44.87934" lon="4.17976">
        <ele>1431</ele>
        <time>2022-05-08T14:29:37Z</time>
      </trkpt>
      <trkpt lat="44.87998" lon="4.17973">
        <ele>1437</ele>
        <time>2022-05-08T14:29:37Z</time>
      </trkpt>
      <trkpt lat="44.88044" lon="4.17999">
        <ele>1442</ele>
        <time>2022-05-08T14:29:37Z</time>
      </trkpt>
      <trkpt lat="44.88299" lon="4.18189">
        <ele>1458</ele>
        <time>2022-05-08T14:29:37Z</time>
      </trkpt>
      <trkpt lat="44.88396" lon="4.18227">
        <ele>1470</ele>
        <time>2022-05-08T14:29:37Z</time>
      </trkpt>
      <trkpt lat="44.88452" lon="4.18227">
        <ele>1477</ele>
        <time>2022-05-08T14:29:37Z</time>
      </trkpt>
      <trkpt lat="44.88452" lon="4.18227">
        <ele>1494</ele>
        <time>2022-05-08T14:29:37Z</time>
      </trkpt>
      <trkpt lat="44.88474" lon="4.18227">
        <ele>1494</ele>
        <time>2022-05-08T14:29:37Z</time>
      </trkpt>
      <trkpt lat="44.88555" lon="4.18189">
        <ele>1498</ele>
        <time>2022-05-08T14:29:37Z</time>
      </trkpt>
      <trkpt lat="44.88554" lon="4.18177">
        <ele>1500</ele>
        <time>2022-05-08T14:29:37Z</time>
      </trkpt>
      <trkpt lat="44.88557" lon="4.18165">
        <ele>1501</ele>
        <time>2022-05-08T14:29:37Z</time>
      </trkpt>
      <trkpt lat="44.8859" lon="4.18143">
        <ele>1504</ele>
        <time>2022-05-08T14:29:37Z</time>
      </trkpt>
      <trkpt lat="44.88608" lon="4.18138">
        <ele>1505</ele>
        <time>2022-05-08T14:29:37Z</time>
      </trkpt>
      <trkpt lat="44.88622" lon="4.1812">
        <ele>1507</ele>
        <time>2022-05-08T14:29:37Z</time>
      </trkpt>
      <trkpt lat="44.88641" lon="4.18116">
        <ele>1509</ele>
        <time>2022-05-08T14:29:37Z</time>
      </trkpt>
      <trkpt lat="44.88665" lon="4.18117">
        <ele>1511</ele>
        <time>2022-05-08T14:29:37Z</time>
      </trkpt>
      <trkpt lat="44.88674" lon="4.18114">
        <ele>1513</ele>
        <time>2022-05-08T14:29:37Z</time>
      </trkpt>
      <trkpt lat="44.88678" lon="4.18105">
        <ele>1514</ele>
        <time>2022-05-08T14:29:37Z</time>
      </trkpt>
      <trkpt lat="44.88683" lon="4.18092">
        <ele>1515</ele>
        <time>2022-05-08T14:29:37Z</time>
      </trkpt>
      <trkpt lat="44.88707" lon="4.18076">
        <ele>1517</ele>
        <time>2022-05-08T14:29:37Z</time>
      </trkpt>
      <trkpt lat="44.88715" lon="4.18075">
        <ele>1518</ele>
        <time>2022-05-08T14:29:37Z</time>
      </trkpt>
      <trkpt lat="44.88743" lon="4.18094">
        <ele>1520</ele>
        <time>2022-05-08T14:29:37Z</time>
      </trkpt>
      <trkpt lat="44.88759" lon="4.18092">
        <ele>1522</ele>
        <time>2022-05-08T14:29:37Z</time>
      </trkpt>
      <trkpt lat="44.88777" lon="4.18097">
        <ele>1524</ele>
        <time>2022-05-08T14:29:37Z</time>
      </trkpt>
      <trkpt lat="44.88797" lon="4.18096">
        <ele>1527</ele>
        <time>2022-05-08T14:29:37Z</time>
      </trkpt>
      <trkpt lat="44.88818" lon="4.18107">
        <ele>1529</ele>
        <time>2022-05-08T14:29:37Z</time>
      </trkpt>
      <trkpt lat="44.88825" lon="4.18112">
        <ele>1542</ele>
        <time>2022-05-08T14:29:37Z</time>
      </trkpt>
      <trkpt lat="44.88903" lon="4.18137">
        <ele>1544</ele>
        <time>2022-05-08T14:29:37Z</time>
      </trkpt>
      <trkpt lat="44.8891" lon="4.18143">
        <ele>1545</ele>
        <time>2022-05-08T14:29:37Z</time>
      </trkpt>
      <trkpt lat="44.88922" lon="4.18165">
        <ele>1545</ele>
        <time>2022-05-08T14:29:37Z</time>
      </trkpt>
      <trkpt lat="44.88937" lon="4.18181">
        <ele>1546</ele>
        <time>2022-05-08T14:29:37Z</time>
      </trkpt>
      <trkpt lat="44.89019" lon="4.18233">
        <ele>1547</ele>
        <time>2022-05-08T14:29:37Z</time>
      </trkpt>
      <trkpt lat="44.89032" lon="4.18248">
        <ele>1548</ele>
        <time>2022-05-08T14:29:37Z</time>
      </trkpt>
      <trkpt lat="44.89096" lon="4.18293">
        <ele>1550</ele>
        <time>2022-05-08T14:29:37Z</time>
      </trkpt>
      <trkpt lat="44.89156" lon="4.18301">
        <ele>1553</ele>
        <time>2022-05-08T14:29:37Z</time>
      </trkpt>
      <trkpt lat="44.89176" lon="4.18309">
        <ele>1555</ele>
        <time>2022-05-08T14:29:37Z</time>
      </trkpt>
      <trkpt lat="44.89231" lon="4.18308">
        <ele>1558</ele>
        <time>2022-05-08T14:29:37Z</time>
      </trkpt>
      <trkpt lat="44.89245" lon="4.18302">
        <ele>1560</ele>
        <time>2022-05-08T14:29:37Z</time>
      </trkpt>
      <trkpt lat="44.89264" lon="4.1829">
        <ele>1562</ele>
        <time>2022-05-08T14:29:37Z</time>
      </trkpt>
      <trkpt lat="44.89273" lon="4.18291">
        <ele>1563</ele>
        <time>2022-05-08T14:29:37Z</time>
      </trkpt>
      <trkpt lat="44.89284" lon="4.18287">
        <ele>1564</ele>
        <time>2022-05-08T14:29:37Z</time>
      </trkpt>
      <trkpt lat="44.89308" lon="4.1829">
        <ele>1565</ele>
        <time>2022-05-08T14:29:37Z</time>
      </trkpt>
      <trkpt lat="44.89327" lon="4.18281">
        <ele>1567</ele>
        <time>2022-05-08T14:29:37Z</time>
      </trkpt>
      <trkpt lat="44.8936" lon="4.18319">
        <ele>1567</ele>
        <time>2022-05-08T14:29:37Z</time>
      </trkpt>
      <trkpt lat="44.89368" lon="4.18343">
        <ele>1568</ele>
        <time>2022-05-08T14:29:37Z</time>
      </trkpt>
      <trkpt lat="44.8937" lon="4.18355">
        <ele>1568</ele>
        <time>2022-05-08T14:29:37Z</time>
      </trkpt>
      <trkpt lat="44.89375" lon="4.18366">
        <ele>1568</ele>
        <time>2022-05-08T14:29:37Z</time>
      </trkpt>
      <trkpt lat="44.89408" lon="4.18358">
        <ele>1567</ele>
        <time>2022-05-08T14:29:37Z</time>
      </trkpt>
      <trkpt lat="44.89427" lon="4.18364">
        <ele>1566</ele>
        <time>2022-05-08T14:29:37Z</time>
      </trkpt>
      <trkpt lat="44.89435" lon="4.18371">
        <ele>1565</ele>
        <time>2022-05-08T14:29:37Z</time>
      </trkpt>
      <trkpt lat="44.89441" lon="4.18381">
        <ele>1564</ele>
        <time>2022-05-08T14:29:37Z</time>
      </trkpt>
      <trkpt lat="44.89477" lon="4.18382">
        <ele>1562</ele>
        <time>2022-05-08T14:29:37Z</time>
      </trkpt>
      <trkpt lat="44.89495" lon="4.18378">
        <ele>1560</ele>
        <time>2022-05-08T14:29:37Z</time>
      </trkpt>
      <trkpt lat="44.89495" lon="4.18378">
        <ele>1551</ele>
        <time>2022-05-08T14:29:37Z</time>
      </trkpt>
      <trkpt lat="44.89523" lon="4.18363">
        <ele>1551</ele>
        <time>2022-05-08T14:29:37Z</time>
      </trkpt>
      <trkpt lat="44.89532" lon="4.1836">
        <ele>1551</ele>
        <time>2022-05-08T14:29:37Z</time>
      </trkpt>
      <trkpt lat="44.89542" lon="4.18361">
        <ele>1550</ele>
        <time>2022-05-08T14:29:37Z</time>
      </trkpt>
      <trkpt lat="44.89565" lon="4.18391">
        <ele>1549</ele>
        <time>2022-05-08T14:29:37Z</time>
      </trkpt>
      <trkpt lat="44.89573" lon="4.18394">
        <ele>1549</ele>
        <time>2022-05-08T14:29:37Z</time>
      </trkpt>
      <trkpt lat="44.89602" lon="4.18391">
        <ele>1547</ele>
        <time>2022-05-08T14:29:37Z</time>
      </trkpt>
      <trkpt lat="44.89611" lon="4.18387">
        <ele>1546</ele>
        <time>2022-05-08T14:29:37Z</time>
      </trkpt>
      <trkpt lat="44.89621" lon="4.18388">
        <ele>1545</ele>
        <time>2022-05-08T14:29:37Z</time>
      </trkpt>
      <trkpt lat="44.89635" lon="4.18399">
        <ele>1543</ele>
        <time>2022-05-08T14:29:37Z</time>
      </trkpt>
      <trkpt lat="44.89677" lon="4.18409">
        <ele>1541</ele>
        <time>2022-05-08T14:29:37Z</time>
      </trkpt>
      <trkpt lat="44.89686" lon="4.18414">
        <ele>1539</ele>
        <time>2022-05-08T14:29:37Z</time>
      </trkpt>
      <trkpt lat="44.89702" lon="4.18418">
        <ele>1538</ele>
        <time>2022-05-08T14:29:37Z</time>
      </trkpt>
      <trkpt lat="44.89722" lon="4.18417">
        <ele>1536</ele>
        <time>2022-05-08T14:29:37Z</time>
      </trkpt>
      <trkpt lat="44.89747" lon="4.18423">
        <ele>1534</ele>
        <time>2022-05-08T14:29:37Z</time>
      </trkpt>
      <trkpt lat="44.89763" lon="4.18435">
        <ele>1532</ele>
        <time>2022-05-08T14:29:37Z</time>
      </trkpt>
      <trkpt lat="44.89779" lon="4.18441">
        <ele>1531</ele>
        <time>2022-05-08T14:29:37Z</time>
      </trkpt>
      <trkpt lat="44.89789" lon="4.18438">
        <ele>1529</ele>
        <time>2022-05-08T14:29:37Z</time>
      </trkpt>
      <trkpt lat="44.89844" lon="4.18457">
        <ele>1526</ele>
        <time>2022-05-08T14:29:37Z</time>
      </trkpt>
      <trkpt lat="44.89917" lon="4.18502">
        <ele>1522</ele>
        <time>2022-05-08T14:29:37Z</time>
      </trkpt>
      <trkpt lat="44.89925" lon="4.185">
        <ele>1519</ele>
        <time>2022-05-08T14:29:37Z</time>
      </trkpt>
      <trkpt lat="44.89932" lon="4.18493">
        <ele>1517</ele>
        <time>2022-05-08T14:29:37Z</time>
      </trkpt>
      <trkpt lat="44.8994" lon="4.18519">
        <ele>1515</ele>
        <time>2022-05-08T14:29:37Z</time>
      </trkpt>
      <trkpt lat="44.89984" lon="4.18531">
        <ele>1509</ele>
        <time>2022-05-08T14:29:37Z</time>
      </trkpt>
      <trkpt lat="44.89996" lon="4.18526">
        <ele>1509</ele>
        <time>2022-05-08T14:29:37Z</time>
      </trkpt>
      <trkpt lat="44.90009" lon="4.18527">
        <ele>1510</ele>
        <time>2022-05-08T14:29:37Z</time>
      </trkpt>
      <trkpt lat="44.90018" lon="4.18523">
        <ele>1510</ele>
        <time>2022-05-08T14:29:37Z</time>
      </trkpt>
      <trkpt lat="44.90038" lon="4.18503">
        <ele>1511</ele>
        <time>2022-05-08T14:29:37Z</time>
      </trkpt>
      <trkpt lat="44.90062" lon="4.18511">
        <ele>1512</ele>
        <time>2022-05-08T14:29:37Z</time>
      </trkpt>
      <trkpt lat="44.90085" lon="4.18529">
        <ele>1513</ele>
        <time>2022-05-08T14:29:37Z</time>
      </trkpt>
      <trkpt lat="44.90094" lon="4.18542">
        <ele>1514</ele>
        <time>2022-05-08T14:29:37Z</time>
      </trkpt>
      <trkpt lat="44.90107" lon="4.1855">
        <ele>1515</ele>
        <time>2022-05-08T14:29:37Z</time>
      </trkpt>
      <trkpt lat="44.90115" lon="4.18549">
        <ele>1516</ele>
        <time>2022-05-08T14:29:37Z</time>
      </trkpt>
      <trkpt lat="44.9013" lon="4.18554">
        <ele>1517</ele>
        <time>2022-05-08T14:29:37Z</time>
      </trkpt>
      <trkpt lat="44.90141" lon="4.18564">
        <ele>1517</ele>
        <time>2022-05-08T14:29:37Z</time>
      </trkpt>
      <trkpt lat="44.90156" lon="4.18585">
        <ele>1518</ele>
        <time>2022-05-08T14:29:37Z</time>
      </trkpt>
      <trkpt lat="44.90169" lon="4.18593">
        <ele>1519</ele>
        <time>2022-05-08T14:29:37Z</time>
      </trkpt>
      <trkpt lat="44.90184" lon="4.18611">
        <ele>1520</ele>
        <time>2022-05-08T14:29:37Z</time>
      </trkpt>
      <trkpt lat="44.90203" lon="4.1862">
        <ele>1522</ele>
        <time>2022-05-08T14:29:37Z</time>
      </trkpt>
      <trkpt lat="44.90209" lon="4.1859">
        <ele>1524</ele>
        <time>2022-05-08T14:29:37Z</time>
      </trkpt>
      <trkpt lat="44.90223" lon="4.18568">
        <ele>1525</ele>
        <time>2022-05-08T14:29:37Z</time>
      </trkpt>
      <trkpt lat="44.90229" lon="4.18562">
        <ele>1527</ele>
        <time>2022-05-08T14:29:37Z</time>
      </trkpt>
      <trkpt lat="44.90238" lon="4.18567">
        <ele>1528</ele>
        <time>2022-05-08T14:29:37Z</time>
      </trkpt>
      <trkpt lat="44.90247" lon="4.18615">
        <ele>1530</ele>
        <time>2022-05-08T14:29:37Z</time>
      </trkpt>
      <trkpt lat="44.90254" lon="4.18611">
        <ele>1532</ele>
        <time>2022-05-08T14:29:37Z</time>
      </trkpt>
      <trkpt lat="44.90264" lon="4.186">
        <ele>1533</ele>
        <time>2022-05-08T14:29:37Z</time>
      </trkpt>
      <trkpt lat="44.90277" lon="4.18596">
        <ele>1535</ele>
        <time>2022-05-08T14:29:37Z</time>
      </trkpt>
      <trkpt lat="44.90289" lon="4.18597">
        <ele>1536</ele>
        <time>2022-05-08T14:29:37Z</time>
      </trkpt>
      <trkpt lat="44.90301" lon="4.18593">
        <ele>1538</ele>
        <time>2022-05-08T14:29:37Z</time>
      </trkpt>
      <trkpt lat="44.90308" lon="4.18585">
        <ele>1539</ele>
        <time>2022-05-08T14:29:37Z</time>
      </trkpt>
      <trkpt lat="44.90319" lon="4.1859">
        <ele>1540</ele>
        <time>2022-05-08T14:29:37Z</time>
      </trkpt>
      <trkpt lat="44.90319" lon="4.18602">
        <ele>1541</ele>
        <time>2022-05-08T14:29:37Z</time>
      </trkpt>
      <trkpt lat="44.90321" lon="4.18613">
        <ele>1543</ele>
        <time>2022-05-08T14:29:37Z</time>
      </trkpt>
      <trkpt lat="44.90342" lon="4.1861">
        <ele>1544</ele>
        <time>2022-05-08T14:29:37Z</time>
      </trkpt>
      <trkpt lat="44.90369" lon="4.18598">
        <ele>1546</ele>
        <time>2022-05-08T14:29:37Z</time>
      </trkpt>
      <trkpt lat="44.90376" lon="4.18596">
        <ele>1548</ele>
        <time>2022-05-08T14:29:37Z</time>
      </trkpt>
      <trkpt lat="44.90383" lon="4.18588">
        <ele>1550</ele>
        <time>2022-05-08T14:29:37Z</time>
      </trkpt>
      <trkpt lat="44.90384" lon="4.18601">
        <ele>1551</ele>
        <time>2022-05-08T14:29:37Z</time>
      </trkpt>
      <trkpt lat="44.90376" lon="4.18627">
        <ele>1553</ele>
        <time>2022-05-08T14:29:37Z</time>
      </trkpt>
      <trkpt lat="44.90371" lon="4.18637">
        <ele>1554</ele>
        <time>2022-05-08T14:29:37Z</time>
      </trkpt>
      <trkpt lat="44.90382" lon="4.18641">
        <ele>1556</ele>
        <time>2022-05-08T14:29:37Z</time>
      </trkpt>
      <trkpt lat="44.90402" lon="4.18625">
        <ele>1558</ele>
        <time>2022-05-08T14:29:37Z</time>
      </trkpt>
      <trkpt lat="44.90413" lon="4.18622">
        <ele>1559</ele>
        <time>2022-05-08T14:29:37Z</time>
      </trkpt>
      <trkpt lat="44.90413" lon="4.18622">
        <ele>1569</ele>
        <time>2022-05-08T14:29:37Z</time>
      </trkpt>
      <trkpt lat="44.90434" lon="4.18623">
        <ele>1569</ele>
        <time>2022-05-08T14:29:37Z</time>
      </trkpt>
      <trkpt lat="44.90437" lon="4.18632">
        <ele>1570</ele>
        <time>2022-05-08T14:29:37Z</time>
      </trkpt>
      <trkpt lat="44.90447" lon="4.18697">
        <ele>1571</ele>
        <time>2022-05-08T14:29:37Z</time>
      </trkpt>
      <trkpt lat="44.90471" lon="4.18757">
        <ele>1574</ele>
        <time>2022-05-08T14:29:37Z</time>
      </trkpt>
      <trkpt lat="44.90474" lon="4.18773">
        <ele>1576</ele>
        <time>2022-05-08T14:29:37Z</time>
      </trkpt>
      <trkpt lat="44.90474" lon="4.18795">
        <ele>1578</ele>
        <time>2022-05-08T14:29:37Z</time>
      </trkpt>
      <trkpt lat="44.90479" lon="4.18811">
        <ele>1579</ele>
        <time>2022-05-08T14:29:37Z</time>
      </trkpt>
      <trkpt lat="44.90488" lon="4.18801">
        <ele>1581</ele>
        <time>2022-05-08T14:29:37Z</time>
      </trkpt>
      <trkpt lat="44.90509" lon="4.18764">
        <ele>1583</ele>
        <time>2022-05-08T14:29:37Z</time>
      </trkpt>
      <trkpt lat="44.90526" lon="4.18751">
        <ele>1599</ele>
        <time>2022-05-08T14:29:37Z</time>
      </trkpt>
      <trkpt lat="44.90534" lon="4.18749">
        <ele>1600</ele>
        <time>2022-05-08T14:29:37Z</time>
      </trkpt>
      <trkpt lat="44.90549" lon="4.18751">
        <ele>1600</ele>
        <time>2022-05-08T14:29:37Z</time>
      </trkpt>
      <trkpt lat="44.90558" lon="4.18746">
        <ele>1601</ele>
        <time>2022-05-08T14:29:37Z</time>
      </trkpt>
      <trkpt lat="44.90593" lon="4.18735">
        <ele>1603</ele>
        <time>2022-05-08T14:29:37Z</time>
      </trkpt>
      <trkpt lat="44.90609" lon="4.18734">
        <ele>1604</ele>
        <time>2022-05-08T14:29:37Z</time>
      </trkpt>
      <trkpt lat="44.90619" lon="4.18731">
        <ele>1606</ele>
        <time>2022-05-08T14:29:37Z</time>
      </trkpt>
      <trkpt lat="44.90627" lon="4.18737">
        <ele>1607</ele>
        <time>2022-05-08T14:29:37Z</time>
      </trkpt>
      <trkpt lat="44.90651" lon="4.18747">
        <ele>1609</ele>
        <time>2022-05-08T14:29:37Z</time>
      </trkpt>
      <trkpt lat="44.9067" lon="4.18746">
        <ele>1610</ele>
        <time>2022-05-08T14:29:37Z</time>
      </trkpt>
      <trkpt lat="44.90677" lon="4.1874">
        <ele>1612</ele>
        <time>2022-05-08T14:29:37Z</time>
      </trkpt>
      <trkpt lat="44.90685" lon="4.18738">
        <ele>1613</ele>
        <time>2022-05-08T14:29:37Z</time>
      </trkpt>
      <trkpt lat="44.90694" lon="4.18738">
        <ele>1614</ele>
        <time>2022-05-08T14:29:37Z</time>
      </trkpt>
      <trkpt lat="44.9078" lon="4.18765">
        <ele>1618</ele>
        <time>2022-05-08T14:29:37Z</time>
      </trkpt>
      <trkpt lat="44.90788" lon="4.18765">
        <ele>1621</ele>
        <time>2022-05-08T14:29:37Z</time>
      </trkpt>
      <trkpt lat="44.90829" lon="4.18782">
        <ele>1625</ele>
        <time>2022-05-08T14:29:37Z</time>
      </trkpt>
      <trkpt lat="44.90838" lon="4.18783">
        <ele>1628</ele>
        <time>2022-05-08T14:29:37Z</time>
      </trkpt>
      <trkpt lat="44.90847" lon="4.18788">
        <ele>1630</ele>
        <time>2022-05-08T14:29:37Z</time>
      </trkpt>
      <trkpt lat="44.90863" lon="4.18802">
        <ele>1632</ele>
        <time>2022-05-08T14:29:37Z</time>
      </trkpt>
      <trkpt lat="44.9089" lon="4.18806">
        <ele>1635</ele>
        <time>2022-05-08T14:29:37Z</time>
      </trkpt>
      <trkpt lat="44.90899" lon="4.18812">
        <ele>1637</ele>
        <time>2022-05-08T14:29:37Z</time>
      </trkpt>
      <trkpt lat="44.90908" lon="4.18816">
        <ele>1638</ele>
        <time>2022-05-08T14:29:37Z</time>
      </trkpt>
      <trkpt lat="44.90925" lon="4.18812">
        <ele>1640</ele>
        <time>2022-05-08T14:29:37Z</time>
      </trkpt>
      <trkpt lat="44.9094" lon="4.18803">
        <ele>1641</ele>
        <time>2022-05-08T14:29:37Z</time>
      </trkpt>
      <trkpt lat="44.90965" lon="4.18796">
        <ele>1643</ele>
        <time>2022-05-08T14:29:37Z</time>
      </trkpt>
      <trkpt lat="44.90976" lon="4.18781">
        <ele>1644</ele>
        <time>2022-05-08T14:29:37Z</time>
      </trkpt>
      <trkpt lat="44.90994" lon="4.18773">
        <ele>1645</ele>
        <time>2022-05-08T14:29:37Z</time>
      </trkpt>
      <trkpt lat="44.91003" lon="4.18771">
        <ele>1646</ele>
        <time>2022-05-08T14:29:37Z</time>
      </trkpt>
      <trkpt lat="44.9101" lon="4.18763">
        <ele>1647</ele>
        <time>2022-05-08T14:29:37Z</time>
      </trkpt>
      <trkpt lat="44.91018" lon="4.18762">
        <ele>1647</ele>
        <time>2022-05-08T14:29:37Z</time>
      </trkpt>
      <trkpt lat="44.91026" lon="4.18769">
        <ele>1648</ele>
        <time>2022-05-08T14:29:37Z</time>
      </trkpt>
      <trkpt lat="44.91036" lon="4.18773">
        <ele>1649</ele>
        <time>2022-05-08T14:29:37Z</time>
      </trkpt>
      <trkpt lat="44.91045" lon="4.18772">
        <ele>1650</ele>
        <time>2022-05-08T14:29:37Z</time>
      </trkpt>
      <trkpt lat="44.91051" lon="4.18778">
        <ele>1650</ele>
        <time>2022-05-08T14:29:37Z</time>
      </trkpt>
      <trkpt lat="44.91061" lon="4.18779">
        <ele>1651</ele>
        <time>2022-05-08T14:29:37Z</time>
      </trkpt>
      <trkpt lat="44.91066" lon="4.18786">
        <ele>1652</ele>
        <time>2022-05-08T14:29:37Z</time>
      </trkpt>
      <trkpt lat="44.91075" lon="4.1881">
        <ele>1653</ele>
        <time>2022-05-08T14:29:37Z</time>
      </trkpt>
      <trkpt lat="44.911" lon="4.18828">
        <ele>1655</ele>
        <time>2022-05-08T14:29:37Z</time>
      </trkpt>
      <trkpt lat="44.911" lon="4.18828">
        <ele>1665</ele>
        <time>2022-05-08T14:29:37Z</time>
      </trkpt>
      <trkpt lat="44.91128" lon="4.18839">
        <ele>1665</ele>
        <time>2022-05-08T14:29:37Z</time>
      </trkpt>
      <trkpt lat="44.91159" lon="4.18835">
        <ele>1666</ele>
        <time>2022-05-08T14:29:37Z</time>
      </trkpt>
      <trkpt lat="44.91166" lon="4.1884">
        <ele>1667</ele>
        <time>2022-05-08T14:29:37Z</time>
      </trkpt>
      <trkpt lat="44.91155" lon="4.18893">
        <ele>1670</ele>
        <time>2022-05-08T14:29:37Z</time>
      </trkpt>
      <trkpt lat="44.91162" lon="4.18903">
        <ele>1672</ele>
        <time>2022-05-08T14:29:37Z</time>
      </trkpt>
      <trkpt lat="44.9117" lon="4.18909">
        <ele>1675</ele>
        <time>2022-05-08T14:29:37Z</time>
      </trkpt>
      <trkpt lat="44.91188" lon="4.18915">
        <ele>1677</ele>
        <time>2022-05-08T14:29:37Z</time>
      </trkpt>
      <trkpt lat="44.91197" lon="4.18923">
        <ele>1680</ele>
        <time>2022-05-08T14:29:37Z</time>
      </trkpt>
      <trkpt lat="44.91197" lon="4.18923">
        <ele>1693</ele>
        <time>2022-05-08T14:29:37Z</time>
      </trkpt>
      <trkpt lat="44.91206" lon="4.18927">
        <ele>1693</ele>
        <time>2022-05-08T14:29:37Z</time>
      </trkpt>
      <trkpt lat="44.91225" lon="4.18929">
        <ele>1694</ele>
        <time>2022-05-08T14:29:37Z</time>
      </trkpt>
      <trkpt lat="44.9125" lon="4.1894">
        <ele>1702</ele>
        <time>2022-05-08T14:29:37Z</time>
      </trkpt>
      <trkpt lat="44.91249" lon="4.18952">
        <ele>1702</ele>
        <time>2022-05-08T14:29:37Z</time>
      </trkpt>
      <trkpt lat="44.91253" lon="4.18965">
        <ele>1703</ele>
        <time>2022-05-08T14:29:37Z</time>
      </trkpt>
      <trkpt lat="44.9126" lon="4.18974">
        <ele>1704</ele>
        <time>2022-05-08T14:29:37Z</time>
      </trkpt>
      <trkpt lat="44.91269" lon="4.18981">
        <ele>1705</ele>
        <time>2022-05-08T14:29:37Z</time>
      </trkpt>
      <trkpt lat="44.91273" lon="4.18993">
        <ele>1706</ele>
        <time>2022-05-08T14:29:37Z</time>
      </trkpt>
      <trkpt lat="44.9127" lon="4.19056">
        <ele>1708</ele>
        <time>2022-05-08T14:29:37Z</time>
      </trkpt>
      <trkpt lat="44.9127" lon="4.19056">
        <ele>1720</ele>
        <time>2022-05-08T14:29:37Z</time>
      </trkpt>
      <trkpt lat="44.91254" lon="4.19119">
        <ele>1721</ele>
        <time>2022-05-08T14:29:37Z</time>
      </trkpt>
      <trkpt lat="44.91244" lon="4.19139">
        <ele>1722</ele>
        <time>2022-05-08T14:29:37Z</time>
      </trkpt>
      <trkpt lat="44.91226" lon="4.19138">
        <ele>1724</ele>
        <time>2022-05-08T14:29:37Z</time>
      </trkpt>
      <trkpt lat="44.91217" lon="4.19131">
        <ele>1725</ele>
        <time>2022-05-08T14:29:37Z</time>
      </trkpt>
      <trkpt lat="44.91164" lon="4.19128">
        <ele>1728</ele>
        <time>2022-05-08T14:29:37Z</time>
      </trkpt>
      <trkpt lat="44.91164" lon="4.19128">
        <ele>1738</ele>
        <time>2022-05-08T14:29:37Z</time>
      </trkpt>
      <trkpt lat="44.91145" lon="4.19123">
        <ele>1739</ele>
        <time>2022-05-08T14:29:37Z</time>
      </trkpt>
      <trkpt lat="44.91137" lon="4.19119">
        <ele>1740</ele>
        <time>2022-05-08T14:29:37Z</time>
      </trkpt>
      <trkpt lat="44.91129" lon="4.19111">
        <ele>1741</ele>
        <time>2022-05-08T14:29:37Z</time>
      </trkpt>
      <trkpt lat="44.91112" lon="4.19103">
        <ele>1742</ele>
        <time>2022-05-08T14:29:37Z</time>
      </trkpt>
      <trkpt lat="44.91105" lon="4.19097">
        <ele>1743</ele>
        <time>2022-05-08T14:29:37Z</time>
      </trkpt>
      <trkpt lat="44.91099" lon="4.19087">
        <ele>1745</ele>
        <time>2022-05-08T14:29:37Z</time>
      </trkpt>
      <trkpt lat="44.91093" lon="4.19096">
        <ele>1746</ele>
        <time>2022-05-08T14:29:37Z</time>
      </trkpt>
      <trkpt lat="44.91065" lon="4.19194">
        <ele>1745</ele>
        <time>2022-05-08T14:29:37Z</time>
      </trkpt>
      <trkpt lat="44.91045" lon="4.19236">
        <ele>1745</ele>
        <time>2022-05-08T14:29:37Z</time>
      </trkpt>
      <trkpt lat="44.91041" lon="4.19257">
        <ele>1745</ele>
        <time>2022-05-08T14:29:37Z</time>
      </trkpt>
      <trkpt lat="44.91048" lon="4.1927">
        <ele>1744</ele>
        <time>2022-05-08T14:29:37Z</time>
      </trkpt>
      <trkpt lat="44.91048" lon="4.1927">
        <ele>1741</ele>
        <time>2022-05-08T14:29:37Z</time>
      </trkpt>
      <trkpt lat="44.91061" lon="4.19287">
        <ele>1741</ele>
        <time>2022-05-08T14:29:37Z</time>
      </trkpt>
      <trkpt lat="44.9107" lon="4.19293">
        <ele>1741</ele>
        <time>2022-05-08T14:29:37Z</time>
      </trkpt>
      <trkpt lat="44.91079" lon="4.19295">
        <ele>1741</ele>
        <time>2022-05-08T14:29:37Z</time>
      </trkpt>
      <trkpt lat="44.91101" lon="4.19273">
        <ele>1740</ele>
        <time>2022-05-08T14:29:37Z</time>
      </trkpt>
      <trkpt lat="44.91107" lon="4.19264">
        <ele>1740</ele>
        <time>2022-05-08T14:29:37Z</time>
      </trkpt>
      <trkpt lat="44.91123" lon="4.19257">
        <ele>1739</ele>
        <time>2022-05-08T14:29:37Z</time>
      </trkpt>
      <trkpt lat="44.91155" lon="4.19225">
        <ele>1738</ele>
        <time>2022-05-08T14:29:37Z</time>
      </trkpt>
      <trkpt lat="44.91164" lon="4.19222">
        <ele>1737</ele>
        <time>2022-05-08T14:29:37Z</time>
      </trkpt>
      <trkpt lat="44.91176" lon="4.19199">
        <ele>1736</ele>
        <time>2022-05-08T14:29:37Z</time>
      </trkpt>
      <trkpt lat="44.91183" lon="4.19191">
        <ele>1736</ele>
        <time>2022-05-08T14:29:37Z</time>
      </trkpt>
      <trkpt lat="44.91216" lon="4.19169">
        <ele>1735</ele>
        <time>2022-05-08T14:29:37Z</time>
      </trkpt>
      <trkpt lat="44.91244" lon="4.19139">
        <ele>1733</ele>
        <time>2022-05-08T14:29:37Z</time>
      </trkpt>
      <trkpt lat="44.9127" lon="4.19134">
        <ele>1732</ele>
        <time>2022-05-08T14:29:37Z</time>
      </trkpt>
      <trkpt lat="44.91279" lon="4.1913">
        <ele>1730</ele>
        <time>2022-05-08T14:29:37Z</time>
      </trkpt>
      <trkpt lat="44.91352" lon="4.19073">
        <ele>1730</ele>
        <time>2022-05-08T14:29:37Z</time>
      </trkpt>
      <trkpt lat="44.91352" lon="4.19073">
        <ele>1729</ele>
        <time>2022-05-08T14:29:37Z</time>
      </trkpt>
      <trkpt lat="44.9136" lon="4.19069">
        <ele>1729</ele>
        <time>2022-05-08T14:29:37Z</time>
      </trkpt>
      <trkpt lat="44.91384" lon="4.19045">
        <ele>1730</ele>
        <time>2022-05-08T14:29:37Z</time>
      </trkpt>
      <trkpt lat="44.91383" lon="4.19032">
        <ele>1730</ele>
        <time>2022-05-08T14:29:37Z</time>
      </trkpt>
      <trkpt lat="44.91354" lon="4.18996">
        <ele>1729</ele>
        <time>2022-05-08T14:29:37Z</time>
      </trkpt>
      <trkpt lat="44.91341" lon="4.18946">
        <ele>1726</ele>
        <time>2022-05-08T14:29:37Z</time>
      </trkpt>
      <trkpt lat="44.91325" lon="4.18934">
        <ele>1724</ele>
        <time>2022-05-08T14:29:37Z</time>
      </trkpt>
      <trkpt lat="44.91315" lon="4.18931">
        <ele>1722</ele>
        <time>2022-05-08T14:29:37Z</time>
      </trkpt>
      <trkpt lat="44.91297" lon="4.18931">
        <ele>1720</ele>
        <time>2022-05-08T14:29:37Z</time>
      </trkpt>
      <trkpt lat="44.91297" lon="4.18931">
        <ele>1710</ele>
        <time>2022-05-08T14:29:37Z</time>
      </trkpt>
      <trkpt lat="44.9128" lon="4.18935">
        <ele>1709</ele>
        <time>2022-05-08T14:29:37Z</time>
      </trkpt>
      <trkpt lat="44.9126" lon="4.18935">
        <ele>1708</ele>
        <time>2022-05-08T14:29:37Z</time>
      </trkpt>
      <trkpt lat="44.9125" lon="4.1894">
        <ele>1707</ele>
        <time>2022-05-08T14:29:37Z</time>
      </trkpt>
      <trkpt lat="44.91225" lon="4.18929">
        <ele>1706</ele>
        <time>2022-05-08T14:29:37Z</time>
      </trkpt>
      <trkpt lat="44.91206" lon="4.18927">
        <ele>1704</ele>
        <time>2022-05-08T14:29:37Z</time>
      </trkpt>
      <trkpt lat="44.91164" lon="4.18906">
        <ele>1700</ele>
        <time>2022-05-08T14:29:37Z</time>
      </trkpt>
      <trkpt lat="44.91156" lon="4.18898">
        <ele>1697</ele>
        <time>2022-05-08T14:29:37Z</time>
      </trkpt>
      <trkpt lat="44.91158" lon="4.18885">
        <ele>1695</ele>
        <time>2022-05-08T14:29:37Z</time>
      </trkpt>
      <trkpt lat="44.91164" lon="4.18844">
        <ele>1691</ele>
        <time>2022-05-08T14:29:37Z</time>
      </trkpt>
      <trkpt lat="44.91159" lon="4.18835">
        <ele>1687</ele>
        <time>2022-05-08T14:29:37Z</time>
      </trkpt>
      <trkpt lat="44.91152" lon="4.18831">
        <ele>1685</ele>
        <time>2022-05-08T14:29:37Z</time>
      </trkpt>
      <trkpt lat="44.91129" lon="4.18807">
        <ele>1681</ele>
        <time>2022-05-08T14:29:37Z</time>
      </trkpt>
      <trkpt lat="44.91117" lon="4.18779">
        <ele>1678</ele>
        <time>2022-05-08T14:29:37Z</time>
      </trkpt>
      <trkpt lat="44.91112" lon="4.1877">
        <ele>1674</ele>
        <time>2022-05-08T14:29:37Z</time>
      </trkpt>
      <trkpt lat="44.91104" lon="4.18752">
        <ele>1671</ele>
        <time>2022-05-08T14:29:37Z</time>
      </trkpt>
      <trkpt lat="44.91091" lon="4.18736">
        <ele>1668</ele>
        <time>2022-05-08T14:29:37Z</time>
      </trkpt>
      <trkpt lat="44.91088" lon="4.18682">
        <ele>1664</ele>
        <time>2022-05-08T14:29:37Z</time>
      </trkpt>
      <trkpt lat="44.91088" lon="4.18682">
        <ele>1644</ele>
        <time>2022-05-08T14:29:37Z</time>
      </trkpt>
      <trkpt lat="44.91083" lon="4.18672">
        <ele>1644</ele>
        <time>2022-05-08T14:29:37Z</time>
      </trkpt>
      <trkpt lat="44.9108" lon="4.18658">
        <ele>1644</ele>
        <time>2022-05-08T14:29:37Z</time>
      </trkpt>
      <trkpt lat="44.91074" lon="4.18652">
        <ele>1643</ele>
        <time>2022-05-08T14:29:37Z</time>
      </trkpt>
      <trkpt lat="44.91058" lon="4.1865">
        <ele>1643</ele>
        <time>2022-05-08T14:29:37Z</time>
      </trkpt>
      <trkpt lat="44.91043" lon="4.18638">
        <ele>1642</ele>
        <time>2022-05-08T14:29:37Z</time>
      </trkpt>
      <trkpt lat="44.91052" lon="4.18617">
        <ele>1640</ele>
        <time>2022-05-08T14:29:37Z</time>
      </trkpt>
      <trkpt lat="44.91065" lon="4.18599">
        <ele>1639</ele>
        <time>2022-05-08T14:29:37Z</time>
      </trkpt>
      <trkpt lat="44.91068" lon="4.18585">
        <ele>1638</ele>
        <time>2022-05-08T14:29:37Z</time>
      </trkpt>
      <trkpt lat="44.91056" lon="4.18564">
        <ele>1636</ele>
        <time>2022-05-08T14:29:37Z</time>
      </trkpt>
      <trkpt lat="44.91059" lon="4.1854">
        <ele>1634</ele>
        <time>2022-05-08T14:29:37Z</time>
      </trkpt>
      <trkpt lat="44.91066" lon="4.18503">
        <ele>1631</ele>
        <time>2022-05-08T14:29:37Z</time>
      </trkpt>
      <trkpt lat="44.91079" lon="4.18485">
        <ele>1629</ele>
        <time>2022-05-08T14:29:37Z</time>
      </trkpt>
      <trkpt lat="44.91088" lon="4.1848">
        <ele>1627</ele>
        <time>2022-05-08T14:29:37Z</time>
      </trkpt>
      <trkpt lat="44.91117" lon="4.18452">
        <ele>1625</ele>
        <time>2022-05-08T14:29:37Z</time>
      </trkpt>
      <trkpt lat="44.91122" lon="4.1844">
        <ele>1623</ele>
        <time>2022-05-08T14:29:37Z</time>
      </trkpt>
      <trkpt lat="44.91128" lon="4.18431">
        <ele>1621</ele>
        <time>2022-05-08T14:29:37Z</time>
      </trkpt>
      <trkpt lat="44.91132" lon="4.18419">
        <ele>1619</ele>
        <time>2022-05-08T14:29:37Z</time>
      </trkpt>
      <trkpt lat="44.91133" lon="4.18409">
        <ele>1618</ele>
        <time>2022-05-08T14:29:37Z</time>
      </trkpt>
      <trkpt lat="44.91138" lon="4.18401">
        <ele>1617</ele>
        <time>2022-05-08T14:29:37Z</time>
      </trkpt>
      <trkpt lat="44.91156" lon="4.18396">
        <ele>1615</ele>
        <time>2022-05-08T14:29:37Z</time>
      </trkpt>
      <trkpt lat="44.91166" lon="4.18389">
        <ele>1614</ele>
        <time>2022-05-08T14:29:37Z</time>
      </trkpt>
      <trkpt lat="44.91178" lon="4.18368">
        <ele>1613</ele>
        <time>2022-05-08T14:29:37Z</time>
      </trkpt>
      <trkpt lat="44.912" lon="4.18351">
        <ele>1611</ele>
        <time>2022-05-08T14:29:37Z</time>
      </trkpt>
      <trkpt lat="44.91237" lon="4.18315">
        <ele>1609</ele>
        <time>2022-05-08T14:29:37Z</time>
      </trkpt>
      <trkpt lat="44.91248" lon="4.18308">
        <ele>1607</ele>
        <time>2022-05-08T14:29:37Z</time>
      </trkpt>
      <trkpt lat="44.91253" lon="4.18298">
        <ele>1605</ele>
        <time>2022-05-08T14:29:37Z</time>
      </trkpt>
      <trkpt lat="44.91269" lon="4.18284">
        <ele>1604</ele>
        <time>2022-05-08T14:29:37Z</time>
      </trkpt>
      <trkpt lat="44.91278" lon="4.18279">
        <ele>1603</ele>
        <time>2022-05-08T14:29:37Z</time>
      </trkpt>
      <trkpt lat="44.91284" lon="4.18274">
        <ele>1602</ele>
        <time>2022-05-08T14:29:37Z</time>
      </trkpt>
      <trkpt lat="44.91298" lon="4.18256">
        <ele>1600</ele>
        <time>2022-05-08T14:29:37Z</time>
      </trkpt>
      <trkpt lat="44.91316" lon="4.18257">
        <ele>1599</ele>
        <time>2022-05-08T14:29:37Z</time>
      </trkpt>
      <trkpt lat="44.91346" lon="4.18229">
        <ele>1592</ele>
        <time>2022-05-08T14:29:37Z</time>
      </trkpt>
      <trkpt lat="44.91364" lon="4.1822">
        <ele>1592</ele>
        <time>2022-05-08T14:29:37Z</time>
      </trkpt>
      <trkpt lat="44.9143" lon="4.18102">
        <ele>1591</ele>
      </trkpt>
      <trkpt lat="44.91495" lon="4.17983">
        <ele>1587</ele>
        <time>2022-05-08T14:29:37Z</time>
      </trkpt>
      <trkpt lat="44.91495" lon="4.17983">
        <ele>1579</ele>
        <time>2022-05-08T14:29:37Z</time>
      </trkpt>
      <trkpt lat="44.91508" lon="4.17959">
        <ele>1579</ele>
        <time>2022-05-08T14:29:37Z</time>
      </trkpt>
      <trkpt lat="44.9158" lon="4.17868">
        <ele>1576</ele>
        <time>2022-05-08T14:29:37Z</time>
      </trkpt>
      <trkpt lat="44.91594" lon="4.17861">
        <ele>1574</ele>
        <time>2022-05-08T14:29:37Z</time>
      </trkpt>
      <trkpt lat="44.91555" lon="4.17737">
        <ele>1571</ele>
        <time>2022-05-08T14:29:37Z</time>
      </trkpt>
      <trkpt lat="44.91541" lon="4.17615">
        <ele>1565</ele>
        <time>2022-05-08T14:29:37Z</time>
      </trkpt>
      <trkpt lat="44.91536" lon="4.17605">
        <ele>1562</ele>
        <time>2022-05-08T14:29:37Z</time>
      </trkpt>
      <trkpt lat="44.91538" lon="4.17582">
        <ele>1559</ele>
        <time>2022-05-08T14:29:37Z</time>
      </trkpt>
      <trkpt lat="44.91532" lon="4.17541">
        <ele>1557</ele>
        <time>2022-05-08T14:29:37Z</time>
      </trkpt>
      <trkpt lat="44.91491" lon="4.17397">
        <ele>1553</ele>
      </trkpt>
      <trkpt lat="44.91449" lon="4.17253">
        <ele>1546</ele>
        <time>2022-05-08T14:29:37Z</time>
      </trkpt>
      <trkpt lat="44.91449" lon="4.17253">
        <ele>1532</ele>
        <time>2022-05-08T14:29:37Z</time>
      </trkpt>
      <trkpt lat="44.91411" lon="4.17134">
        <ele>1529</ele>
      </trkpt>
      <trkpt lat="44.91372" lon="4.17015">
        <ele>1525</ele>
        <time>2022-05-08T14:29:37Z</time>
      </trkpt>
      <trkpt lat="44.91326" lon="4.1693">
        <ele>1521</ele>
        <time>2022-05-08T14:29:37Z</time>
      </trkpt>
      <trkpt lat="44.91319" lon="4.16896">
        <ele>1518</ele>
        <time>2022-05-08T14:29:37Z</time>
      </trkpt>
      <trkpt lat="44.91318" lon="4.16883">
        <ele>1516</ele>
        <time>2022-05-08T14:29:37Z</time>
      </trkpt>
      <trkpt lat="44.9132" lon="4.1687">
        <ele>1515</ele>
        <time>2022-05-08T14:29:37Z</time>
      </trkpt>
      <trkpt lat="44.91259" lon="4.16758">
        <ele>1511</ele>
        <time>2022-05-08T14:29:37Z</time>
      </trkpt>
      <trkpt lat="44.91253" lon="4.16752">
        <ele>1508</ele>
        <time>2022-05-08T14:29:37Z</time>
      </trkpt>
      <trkpt lat="44.9123" lon="4.16743">
        <ele>1506</ele>
        <time>2022-05-08T14:29:37Z</time>
      </trkpt>
      <trkpt lat="44.91182" lon="4.167">
        <ele>1503</ele>
        <time>2022-05-08T14:29:37Z</time>
      </trkpt>
      <trkpt lat="44.91165" lon="4.16676">
        <ele>1500</ele>
        <time>2022-05-08T14:29:37Z</time>
      </trkpt>
      <trkpt lat="44.91157" lon="4.16644">
        <ele>1497</ele>
        <time>2022-05-08T14:29:37Z</time>
      </trkpt>
      <trkpt lat="44.91157" lon="4.16644">
        <ele>1486</ele>
        <time>2022-05-08T14:29:37Z</time>
      </trkpt>
      <trkpt lat="44.91143" lon="4.16557">
        <ele>1484</ele>
        <time>2022-05-08T14:29:37Z</time>
      </trkpt>
      <trkpt lat="44.91142" lon="4.1653">
        <ele>1482</ele>
        <time>2022-05-08T14:29:37Z</time>
      </trkpt>
      <trkpt lat="44.91156" lon="4.16425">
        <ele>1479</ele>
        <time>2022-05-08T14:29:37Z</time>
      </trkpt>
      <trkpt lat="44.91154" lon="4.16412">
        <ele>1476</ele>
        <time>2022-05-08T14:29:37Z</time>
      </trkpt>
      <trkpt lat="44.91137" lon="4.16372">
        <ele>1473</ele>
        <time>2022-05-08T14:29:37Z</time>
      </trkpt>
      <trkpt lat="44.9112" lon="4.16347">
        <ele>1470</ele>
        <time>2022-05-08T14:29:37Z</time>
      </trkpt>
      <trkpt lat="44.91094" lon="4.16317">
        <ele>1468</ele>
        <time>2022-05-08T14:29:37Z</time>
      </trkpt>
      <trkpt lat="44.9106" lon="4.16275">
        <ele>1464</ele>
        <time>2022-05-08T14:29:37Z</time>
      </trkpt>
      <trkpt lat="44.9106" lon="4.16275">
        <ele>1453</ele>
        <time>2022-05-08T14:29:37Z</time>
      </trkpt>
      <trkpt lat="44.91035" lon="4.1625">
        <ele>1452</ele>
        <time>2022-05-08T14:29:37Z</time>
      </trkpt>
      <trkpt lat="44.90976" lon="4.1621">
        <ele>1449</ele>
        <time>2022-05-08T14:29:37Z</time>
      </trkpt>
      <trkpt lat="44.90966" lon="4.16189">
        <ele>1446</ele>
        <time>2022-05-08T14:29:37Z</time>
      </trkpt>
      <trkpt lat="44.90933" lon="4.16045">
        <ele>1441</ele>
      </trkpt>
      <trkpt lat="44.90899" lon="4.15901">
        <ele>1434</ele>
        <time>2022-05-08T14:29:37Z</time>
      </trkpt>
      <trkpt lat="44.90848" lon="4.15827">
        <ele>1428</ele>
        <time>2022-05-08T14:29:37Z</time>
      </trkpt>
      <trkpt lat="44.90747" lon="4.15737">
        <ele>1416</ele>
        <time>2022-05-08T14:29:37Z</time>
      </trkpt>
      <trkpt lat="44.90735" lon="4.15734">
        <ele>1410</ele>
        <time>2022-05-08T14:29:37Z</time>
      </trkpt>
      <trkpt lat="44.90735" lon="4.15734">
        <ele>1393</ele>
        <time>2022-05-08T14:29:37Z</time>
      </trkpt>
      <trkpt lat="44.9069" lon="4.15707">
        <ele>1391</ele>
        <time>2022-05-08T14:29:37Z</time>
      </trkpt>
      <trkpt lat="44.90608" lon="4.1569">
        <ele>1386</ele>
        <time>2022-05-08T14:29:37Z</time>
      </trkpt>
      <trkpt lat="44.90597" lon="4.15696">
        <ele>1382</ele>
        <time>2022-05-08T14:29:37Z</time>
      </trkpt>
      <trkpt lat="44.90584" lon="4.15715">
        <ele>1379</ele>
        <time>2022-05-08T14:29:37Z</time>
      </trkpt>
      <trkpt lat="44.90563" lon="4.15716">
        <ele>1377</ele>
        <time>2022-05-08T14:29:37Z</time>
      </trkpt>
      <trkpt lat="44.90539" lon="4.15708">
        <ele>1374</ele>
        <time>2022-05-08T14:29:37Z</time>
      </trkpt>
      <trkpt lat="44.90531" lon="4.15697">
        <ele>1372</ele>
        <time>2022-05-08T14:29:37Z</time>
      </trkpt>
      <trkpt lat="44.90496" lon="4.15625">
        <ele>1368</ele>
        <time>2022-05-08T14:29:37Z</time>
      </trkpt>
    </trkseg>
  </trk>
</gpx>